TimeMST,TemperatureF,Dew PointF,Humidity,Sea Level PressureIn,VisibilityMPH,Wind Direction,Wind SpeedMPH,Gust SpeedMPH,PrecipitationIn,Events,Conditions,WindDirDegrees,DateUTC
12:53 AM,39.0,32.0,76,30.40,10.0,WSW,6.9,-,N/A,,Clear,240,2012-11-05 07:53:00
1:53 AM,41.0,32.0,70,30.38,10.0,SW,6.9,-,N/A,,Clear,220,2012-11-05 08:53:00
2:53 AM,39.9,32.0,73,30.38,10.0,West,4.6,-,N/A,,Clear,260,2012-11-05 09:53:00
3:53 AM,39.0,30.9,73,30.38,10.0,Calm,Calm,-,N/A,,Clear,0,2012-11-05 10:53:00
5:53 AM,39.0,30.9,73,30.40,10.0,SSW,4.6,-,N/A,,Clear,210,2012-11-05 12:53:00
6:53 AM,36.0,30.0,79,30.42,10.0,Calm,Calm,-,N/A,,Clear,0,2012-11-05 13:53:00
7:53 AM,37.9,30.9,76,30.45,10.0,South,3.5,-,N/A,,Clear,180,2012-11-05 14:53:00
8:53 AM,44.1,34.0,68,30.42,10.0,SSW,8.1,-,N/A,,Clear,210,2012-11-05 15:53:00
9:53 AM,53.1,37.9,57,30.40,10.0,Calm,Calm,-,N/A,,Clear,0,2012-11-05 16:53:00
10:53 AM,52.0,39.0,61,30.38,10.0,WSW,6.9,-,N/A,,Clear,250,2012-11-05 17:53:00
11:53 AM,59.0,39.9,49,30.37,10.0,WSW,6.9,-,N/A,,Clear,250,2012-11-05 18:53:00
12:53 PM,61.0,42.1,50,30.34,-9999.0,WSW,10.4,-,N/A,,Clear,240,2012-11-05 19:53:00
1:53 PM,62.1,42.1,48,30.31,-9999.0,West,11.5,-,N/A,,Unknown,260,2012-11-05 20:53:00
2:53 PM,62.1,44.1,52,30.29,10.0,West,9.2,-,N/A,,Clear,260,2012-11-05 21:53:00
3:53 PM,63.0,43.0,48,30.28,10.0,West,12.7,16.1,N/A,,Clear,260,2012-11-05 22:53:00
4:53 PM,60.1,44.1,55,30.28,10.0,WSW,12.7,-,N/A,,Clear,250,2012-11-05 23:53:00
5:53 PM,54.0,43.0,66,30.30,10.0,SW,9.2,-,N/A,,Clear,230,2012-11-06 00:53:00
6:53 PM,46.9,39.9,77,30.34,10.0,SW,6.9,-,N/A,,Clear,230,2012-11-06 01:53:00
7:53 PM,48.0,41.0,77,30.33,10.0,Calm,Calm,-,N/A,,Clear,0,2012-11-06 02:53:00
8:53 PM,44.1,39.9,85,30.32,10.0,South,4.6,-,N/A,,Clear,190,2012-11-06 03:53:00
9:53 PM,43.0,36.0,76,30.30,10.0,SSW,3.5,-,N/A,,Clear,210,2012-11-06 04:53:00
10:53 PM,42.1,35.1,76,30.31,10.0,Calm,Calm,-,N/A,,Clear,0,2012-11-06 05:53:00
11:53 PM,42.1,35.1,76,30.28,10.0,Calm,Calm,-,N/A,,Clear,0,2012-11-06 06:53:00